Weather History for KTWF - September, 2013

Change the Weather History Date:

Wednesday, September 25, 2013

  Actual Average Record
Temperature  
Mean Temperature 47 °F -  
Max Temperature 53 °F 73 °F 93 °F (2014)
Min Temperature 40 °F 44 °F 27 °F (2000)
Degree Days  
Heating Degree Days 18 7  
Month to date heating degree days 58 99  
Since 1 July heating degree days 58 120  
Cooling Degree Days 0 1  
Month to date cooling degree days 99 59  
Year to date cooling degree days 1138 676  
Moisture  
Dew Point 38 °F    
Average Humidity 72    
Maximum Humidity 89    
Minimum Humidity 54    
Precipitation  
Precipitation 0.08 in 0.02 in 0.20 in (1998)
Month to date precipitation 0.81 0.46  
Year to date precipitation 4.00 7.34  
Sea Level Pressure  
Sea Level Pressure 29.69 in    
Wind  
Wind Speed 11 mph (SW)    
Max Wind Speed 23 mph    
Max Gust Speed 30 mph    
Visibility 10 miles    
Events Rain    
T = Trace of Precipitation, MM = Missing Value Source: NWS Daily Summary

Daily Weather History Graph

Daily Weather History Graph

Search for Another Location

Airport or City:

Trip Planner

Search our weather history database for the weather conditions in past years. The results will help you decide how hot, cold, wet, or windy it might be!

Date:

Astronomy

Sep. 25, 2013 Rise Set
Actual Time 7:28 AM MDT 7:29 PM MDT
Civil Twilight 7:00 AM MDT 7:57 PM MDT
Nautical Twilight 6:28 AM MDT 8:30 PM MDT
Astronomical Twilight 5:54 AM MDT 9:03 PM MDT
Moon 11:32 PM MDT 1:44 PM MDT
Length of Visible Light 12h 56m
Length of Day
12h 00m
Waning Gibbous, 63% of the Moon is Illuminated
Sep 25
Waning Gibbous
Sep 26
Last Quarter
Oct 4
New
Oct 11
First Quarter
Oct 18
Full

Hourly Weather History & Observations

Time (MDT) Temp. Windchill Dew Point Humidity Pressure Visibility Wind Dir Wind Speed Gust Speed Precip Events Conditions
12:53 AM 50.0 °F - 39.0 °F 66% 29.70 in 10.0 mi SW 9.2 mph - N/A   Mostly Cloudy
1:53 AM 50.0 °F - 39.0 °F 66% 29.69 in 10.0 mi SW 8.1 mph - N/A   Partly Cloudy
2:53 AM 48.9 °F - 37.9 °F 66% 29.65 in 10.0 mi SW 5.8 mph - N/A   Overcast
3:53 AM 46.9 °F - 37.9 °F 71% 29.63 in 10.0 mi Calm Calm - N/A   Partly Cloudy
4:53 AM 43.0 °F 38.8 °F 36.0 °F 76% 29.60 in 10.0 mi SSE 6.9 mph - N/A   Partly Cloudy
5:53 AM 43.0 °F 41.3 °F 36.0 °F 76% 29.58 in 10.0 mi ESE 3.5 mph - N/A   Mostly Cloudy
6:53 AM 46.0 °F 41.9 °F 37.0 °F 71% 29.60 in 10.0 mi WSW 8.1 mph - 0.00 in   Overcast
7:53 AM 45.0 °F 41.8 °F 39.9 °F 82% 29.63 in 10.0 mi WSW 5.8 mph - 0.02 in Rain Light Rain
8:53 AM 45.0 °F 40.1 °F 41.0 °F 86% 29.62 in 7.0 mi SSE 9.2 mph - 0.01 in Rain Light Rain
9:37 AM 44.6 °F 38.1 °F 41.0 °F 87% 29.71 in 10.0 mi West 13.8 mph - 0.00 in Rain Light Rain
9:53 AM 43.0 °F 35.7 °F 39.0 °F 86% 29.65 in 7.0 mi West 15.0 mph - 0.01 in Rain Light Rain
10:43 AM 44.6 °F 40.2 °F 39.2 °F 81% 29.72 in 10.0 mi WSW 8.1 mph - 0.00 in   Overcast
10:53 AM 45.0 °F 40.1 °F 39.0 °F 80% 29.65 in 10.0 mi WSW 9.2 mph - 0.00 in   Overcast
11:08 AM 44.6 °F 38.4 °F 39.2 °F 81% 29.73 in 6.0 mi WSW 12.7 mph - 0.01 in Rain Light Rain
11:53 AM 45.0 °F 37.4 °F 39.9 °F 82% 29.66 in 7.0 mi WSW 18.4 mph 27.6 mph 0.01 in Rain Light Rain
12:00 PM 44.6 °F 37.2 °F 39.2 °F 81% 29.73 in 10.0 mi WSW 17.3 mph 25.3 mph 0.01 in Rain Light Rain
12:15 PM 44.6 °F 36.1 °F 39.2 °F 81% 29.74 in 7.0 mi SW 21.9 mph 27.6 mph 0.01 in Rain Light Rain
12:37 PM 42.8 °F 34.5 °F 37.4 °F 81% 29.75 in 8.0 mi WSW 18.4 mph 27.6 mph 0.02 in Rain Light Rain
12:53 PM 43.0 °F 35.4 °F 39.0 °F 86% 29.68 in 10.0 mi SW 16.1 mph 25.3 mph 0.02 in Rain Light Rain
1:53 PM 50.0 °F - 41.0 °F 71% 29.66 in 10.0 mi West 15.0 mph - 0.01 in   Scattered Clouds
2:16 PM 51.8 °F - 41.0 °F 67% 29.73 in 10.0 mi West 13.8 mph 23.0 mph N/A   Mostly Cloudy
2:48 PM 50.0 °F - 39.2 °F 66% 29.73 in 10.0 mi West 11.5 mph - N/A   Overcast
2:53 PM 51.1 °F - 39.9 °F 66% 29.66 in 10.0 mi West 13.8 mph 18.4 mph N/A   Mostly Cloudy
3:15 PM 50.0 °F - 39.2 °F 66% 29.73 in 10.0 mi West 13.8 mph - N/A   Mostly Cloudy
3:53 PM 51.1 °F - 39.0 °F 63% 29.67 in 10.0 mi West 16.1 mph - N/A   Overcast
4:53 PM 52.0 °F - 37.9 °F 59% 29.67 in 10.0 mi West 13.8 mph - 0.00 in   Mostly Cloudy
5:53 PM 52.0 °F - 36.0 °F 54% 29.68 in 10.0 mi West 16.1 mph 23.0 mph N/A   Mostly Cloudy
6:53 PM 48.9 °F - 37.0 °F 64% 29.69 in 10.0 mi West 10.4 mph - N/A   Mostly Cloudy
7:25 PM 44.6 °F 39.2 °F 37.4 °F 76% 29.76 in 10.0 mi SSW 10.4 mph - N/A   Overcast
7:53 PM 45.0 °F 40.1 °F 37.0 °F 74% 29.72 in 10.0 mi WSW 9.2 mph - 0.00 in   Overcast
8:53 PM 42.1 °F 33.6 °F 36.0 °F 79% 29.73 in 10.0 mi SW 18.4 mph 28.8 mph 0.00 in Rain Light Rain
9:53 PM 42.1 °F 36.1 °F 35.1 °F 76% 29.74 in 10.0 mi SW 10.4 mph - 0.00 in   Mostly Cloudy
10:53 PM 41.0 °F 34.3 °F 34.0 °F 76% 29.73 in 10.0 mi South 11.5 mph - N/A   Mostly Cloudy
11:19 PM 41.0 °F 34.3 °F 35.6 °F 81% 29.78 in 10.0 mi SSW 11.5 mph - N/A   Overcast
11:32 PM 41.0 °F 34.7 °F 35.6 °F 81% 29.78 in 10.0 mi SSW 10.4 mph - N/A   Overcast
11:53 PM 42.1 °F 36.6 °F 36.0 °F 79% 29.74 in 10.0 mi SSW 9.2 mph - N/A   Overcast